This demonstration page uses our WeatherBlox Daily Observations layout. Learn more.

Left ArrowRight Arrow

Hourly Observations for February 24, 2017

Temp ( °F °C ) Dew Point ( °F °C ) Humidity (%) Winds ( mph kmh ) Pressure ( in mb ) Visibility ( mi km ) Precip ( " mm )
12:53 am 00:53 Clear 62 16.7 56 13.3 80 80 VRB 6 9 29.71 1006 10 16 N/A
1:53 am 01:53 Mostly Cloudy 63 17.2 56 13.3 78 78 SSE 6 9 29.72 1006 10 16 N/A
2:53 am 02:53 Clear 61 16.1 55 12.8 81 81 SSE 5 7 29.72 1006 10 16 N/A
3:53 am 03:53 Clear 59 15 54 12.2 83 83 SSE 3 6 29.72 1006 10 16 N/A
4:53 am 04:53 Clear 59 15 54 12.2 83 83 VRB 3 6 29.69 1006 10 16 N/A
5:53 am 05:53 Clear 61 16.1 54 12.2 78 78 S 6 9 29.70 1006 10 16 N/A
6:53 am 06:53 Mostly Cloudy 61 16.1 54 12.2 78 78 S 6 9 29.69 1005 10 16 N/A
7:53 am 07:53 Partly Cloudy 61 16.1 54 12.2 78 78 SSE 8 13 29.68 1005 10 16 N/A
8:53 am 08:53 Cloudy 65 18.3 55 12.8 70 70 S 12 19 29.70 1006 10 16 N/A
9:53 am 09:53 Partly Cloudy 69 20.6 56 13.3 63 63 SSW 10 17 29.69 1005 10 16 N/A
10:53 am 10:53 Mostly Cloudy 73 22.8 57 13.9 57 57 S 17 28 29.66 1004 10 16 N/A
11:53 am 11:53 Mostly Sunny 73 22.8 56 13.3 55 55 SSW 14 22 29.63 1003 10 16 N/A
12:53 pm 12:53 Sunny 77 25 55 12.8 47 47 S 15 24 29.60 1002 10 16 N/A
1:53 pm 13:53 Mostly Sunny 77 25 53 11.7 43 43 S 15 24 29.56 1001 10 16 N/A
2:53 pm 14:53 Mostly Sunny 79 26.1 53 11.7 41 41 SW 17 28 29.54 1000 10 16 N/A
3:53 pm 15:53 Mostly Cloudy 77 25 52 11.1 42 42 SSW 13 20 29.55 1001 10 16 N/A
4:53 pm 16:53 Mostly Cloudy 76 24.4 52 11.1 43 43 SSW 9 15 29.54 1001 10 16 N/A
5:53 pm 17:53 Mostly Cloudy 75 23.9 53 11.7 46 46 S 7 11 29.52 1000 10 16 N/A
6:53 pm 18:53 Cloudy 75 23.9 52 11.1 45 45 S 9 15 29.51 999 10 16 N/A
7:07 pm 19:07 Cloudy with Nearby Thunderstorms 75 23.9 52 11.1 45 45 S 9 15 29.50 999 10 16 N/A
7:36 pm 19:36 Cloudy with Thunderstorms 65 18.3 57 13.9 76 76 SW 8 13 29.56 1001 6 10 0.02 0.51
7:53 pm 19:53 Cloudy with Thunderstorms 62 16.7 58 14.4 86 86 W 10 17 29.55 1001 4 6 0.07 1.78
8:08 pm 20:08 Cloudy with Heavy Thunderstorms 60 15.6 59 15 96 96 VRB 5 7 29.56 1001 2 3 0.11 2.79
8:16 pm 20:16 Cloudy with Light Thunderstorms 61 16.1 59 15 93 93 SSW 5 7 29.56 1001 3 5 0.11 2.79
8:33 pm 20:33 Cloudy with Nearby Thunderstorms 61 16.1 59 15 93 93 W 3 6 29.56 1001 10 16 0.12 3.05
8:42 pm 20:42 Cloudy with Light Rain 61 16.1 59 15 93 93 SW 6 9 29.56 1001 10 16 0.12 3.05
8:53 pm 20:53 Mostly Cloudy 61 16.1 59 15 93 93 N N/A 29.54 1000 10 16 0.12 3.05
9:53 pm 21:53 Mostly Cloudy 62 16.7 58 14.4 86 86 WSW 7 11 29.54 1000 10 16 N/A
10:46 pm 22:46 Cloudy 57 13.9 52 11.1 83 83 WNW 22 35 29.59 1002 10 16 N/A
10:53 pm 22:53 Cloudy 57 13.9 49 9.4 74 74 W 15 24 29.59 1002 10 16 N/A
11:03 pm 23:03 Cloudy 56 13.3 47 8.3 72 72 W 12 19 29.62 1003 10 16 N/A
11:53 pm 23:53 Mostly Cloudy 53 11.7 44 6.7 72 72 W 9 15 29.62 1003 10 16 N/A

Powered by AerisWeather